Miscellaneous Local Product
Issued by NWS North Platte, NE

Home | Current Version | Previous Version | Text Only | Print | Product List | Glossary On
Versions: 1 2 3 4 5 6 7 8 9 10 11 12 13 14 15 16 17 18 19 20 21 22 23 24 25 26 27 28 29 30 31 32 33 34 35 36 37 38 39 40 41 42 43 44 45 46 47 48 49 50
017
AXUS43 KLBF 250310
MISLBF


WESTERN AND NORTH CENTRAL NEBRASKA HOURLY WEATHER ROUNDUP
NATIONAL WEATHER SERVICE NORTH PLATTE NE
1000 PM CDT TUE MAY 24 2016

NOTE: "FAIR" INDICATES FEW OR NO CLOUDS BELOW 12,000 FEET WITH NO
SIGNIFICANT WEATHER AND/OR OBSTRUCTIONS TO VISIBILITY.

NOTE: STATIONS NOT REPORTING VARIABLES SUCH AS SKY/WEATHER OR
PRESSURE ARE PROVIDED BY RAWS AND APRS NETWORKS AND ARE NOT UNDER
NATIONAL WEATHER SERVICE QUALITY CONTROL.

...OBSERVATIONS IN AND NEAR THE EASTERN PANHANDLE OF NEBRASKA...

CITY           SKY/WX    TMP DP  RH WIND       PRES   REMARKS
PINE RIDGE     LGT RAIN  54  49  83 NW5       29.93R
CHADRON        CLOUDY    54 N/A N/A E16       29.84F
ALLIANCE       LGT RAIN  52  49  89 N16       29.87S
SIDNEY         CLOUDY    55  51  86 E8        29.81F
CRESCENT LAKE    N/A     57  51  79 NE8         N/A
BIG SPRINGS      N/A     68  51  54 NW8         N/A
$$

...OBSERVATIONS IN NORTHERN NEBRASKA AND FAR SOUTHERN SOUTH DAKOTA...

CITY           SKY/WX    TMP DP  RH WIND       PRES   REMARKS
WINNER         MOCLDY    68  55  63 SE9       29.77R
VALENTINE      CLOUDY    69  53  56 SE6       29.80R
THEDFORD       CLOUDY    70  58  66 S8        29.82R
AINSWORTH      MOCLDY    69  55  59 SE9       29.80R
O`NEILL        CLOUDY    71  56  59 SE9       29.80F
ORD            CLOUDY    70  59  68 SE6       29.79F
BROKEN BOW     CLOUDY    68  59  73 SE8       29.80F
BUTTE            N/A     72  59  62 E16G25      N/A
CHAMBERS         N/A     68  57  68 W3          N/A
EWING            N/A     68  57  68 CALM        N/A
$$

...OBSERVATIONS IN SOUTHWEST NEBRASKA AND FAR NORTHEAST COLORADO...

CITY           SKY/WX    TMP DP  RH WIND       PRES   REMARKS
HOLYOKE        LGT RAIN  55  52  88 E21G26    29.76F
IMPERIAL       CLOUDY    66  55  67 N22G31    29.84R THUNDER
OGALLALA       TSTM      55  51  87 NE8       29.89R
NORTH PLATTE   CLEAR     66  59  78 SE8       29.79R
MCCOOK         CLOUDY    69  62  78 SE9       29.76S
LEXINGTON      CLOUDY    70  60  70 E8        29.78F
PAXTON           N/A     70  61  72 E8          N/A
STAPLETON        N/A     67  59  75 CALM        N/A
GOTHENBURG       N/A     71  56  58 E5          N/A
CALLAWAY         N/A     68  58  71 SE12        N/A
$$

...OBSERVATIONS IN CENTRAL LINCOLN COUNTY AREA...

CITY           SKY/WX    TMP DP  RH WIND       PRES   REMARKS
N.P. AIRPORT   CLEAR     66  59  78 SE8       29.79R
N.P. DOWNTOWN    N/A     69  60  72 CALM        N/A
N.P. SOUTHEAST   N/A     68  58  71 SE5         N/A
N.P. HILLCREST   N/A     67  60  77 SE8         N/A
$$

...SOME OBSERVATIONS FROM AROUND THE REGION...

CITY           SKY/WX    TMP DP  RH WIND       PRES   REMARKS
DENVER         CLOUDY    57  49  74 NW7       29.86R
LARAMIE        CLOUDY    51  39  63 S9        29.92R
CHEYENNE       CLOUDY    54  43  66 SW7       29.88S
SCOTTSBLUFF    CLOUDY    59  47  64 E15       29.84R
RAPID CITY     CLOUDY    57  48  72 S8        29.84R
BISMARCK       MOCLDY    67  48  50 E8        29.83S
PIERRE         CLOUDY    70  50  49 NE16      29.74F
SIOUX FALLS    PTCLDY    74  59  59 SE12      29.84S
OMAHA          PTCLDY    72  60  66 SE6       29.85R
GRAND ISLAND   CLOUDY    72  60  66 SE10      29.83S
KANSAS CITY    CLOUDY    75  65  70 SE10      29.89S
WICHITA        LGT RAIN  75  62  64 SE16G23   29.83R
OKLAHOMA CITY  MOCLDY    75  71  87 SE15G28   29.86F
DALLAS         CLOUDY    83  72  69 S14       29.91R
AMARILLO       CLEAR     74  61  63 SE15      29.86R
DODGE CITY     CLOUDY    69  59  70 SE10      29.79R
HAYS           CLOUDY    59  52  77 SE22      29.78S
GOODLAND       CLEAR     65  56  72 SE20      29.77R
$$




USA.gov is the U.S. government's official web portal to all federal, state and local government web resources and services.